Salina, KS

6:50 PM CST on January 22, 2017 (GMT -0600)
Salina Municipal

Weather History for KSLN - August, 2013

Change the Weather History Date:

Sunday, August 18, 2013

  Actual Average Record
Temperature  
Mean Temperature 73 °F 80 °F  
Max Temperature 84 °F 91 °F 110 °F (1936)
Min Temperature 61 °F 68 °F 54 °F (1919)
Degree Days  
Heating Degree Days 0 0  
Month to date heating degree days 0 0  
Since 1 June heating degree days 10 7  
Since 1 July heating degree days 3 0  
Cooling Degree Days 8 15  
Month to date cooling degree days 189 281  
Year to date cooling degree days 1160 1235  
Since 1 June cooling degree days 1019 1107  
Growing Degree Days 22 (Base 50)    
Moisture  
Dew Point 61 °F    
Average Humidity 69    
Maximum Humidity 90    
Minimum Humidity 47    
Precipitation  
Precipitation 0.00 in 0.13 in 1.90 in (1963)
Month to date precipitation 5.00 2.38  
Year to date precipitation 26.24 22.77  
Sea Level Pressure  
Sea Level Pressure 30.08 in    
Wind  
Wind Speed 8 mph (SSE)    
Max Wind Speed 15 mph    
Max Gust Speed 20 mph    
Visibility 10 miles    
Events      
T = Trace of Precipitation, MM = Missing Value Source: NWS Daily Summary

Daily Weather History Graph

Daily Weather History Graph

Search for Another Location

Airport or City:

Trip Planner

Search our weather history database for the weather conditions in past years. The results will help you decide how hot, cold, wet, or windy it might be!

Date:

Astronomy

Aug. 18, 2013 Rise Set
Actual Time 6:47 AM CDT 8:20 PM CDT
Civil Twilight 6:19 AM CDT 8:48 PM CDT
Nautical Twilight 5:45 AM CDT 9:22 PM CDT
Astronomical Twilight 5:09 AM CDT 9:58 PM CDT
Moon 6:27 PM CDT (8/18) 3:59 AM CDT (8/18)
Length of Visible Light 14h 29m
Length of Day
13h 33m
Waxing Gibbous, 92% of the Moon is Illuminated
Aug 18
Waxing Gibbous
Aug 20
Full
Aug 28
Last Quarter
Sep 5
New
Sep 12
First Quarter

Hourly Weather History & Observations

Time (CDT) Temp. Heat Index Dew Point Humidity Pressure Visibility Wind Dir Wind Speed Gust Speed Precip Events Conditions
12:53 AM 64.0 °F - 57.9 °F 80% 30.12 in 10.0 mi SE 4.6 mph - N/A   Mostly Cloudy
1:53 AM 64.0 °F - 57.9 °F 80% 30.11 in 10.0 mi SE 5.8 mph - N/A   Clear
2:53 AM 62.1 °F - 57.9 °F 86% 30.10 in 10.0 mi South 4.6 mph - N/A   Overcast
3:53 AM 62.1 °F - 57.9 °F 86% 30.10 in 10.0 mi SE 4.6 mph - N/A   Mostly Cloudy
4:53 AM 61.0 °F - 57.9 °F 90% 30.10 in 9.0 mi South 3.5 mph - N/A   Mostly Cloudy
5:53 AM 63.0 °F - 57.0 °F 81% 30.10 in 10.0 mi ESE 3.5 mph - N/A   Overcast
6:53 AM 62.1 °F - 57.9 °F 86% 30.12 in 10.0 mi SE 4.6 mph - N/A   Mostly Cloudy
7:53 AM 64.0 °F - 57.9 °F 80% 30.13 in 10.0 mi SSE 5.8 mph - N/A   Scattered Clouds
8:53 AM 68.0 °F - 59.0 °F 73% 30.13 in 10.0 mi SSE 8.1 mph - N/A   Partly Cloudy
9:53 AM 72.0 °F - 61.0 °F 68% 30.13 in 10.0 mi SSE 9.2 mph - N/A   Partly Cloudy
10:53 AM 75.9 °F - 61.0 °F 60% 30.12 in 10.0 mi SE 13.8 mph - N/A   Clear
11:53 AM 77.0 °F - 60.1 °F 56% 30.12 in 10.0 mi SSE 12.7 mph - N/A   Mostly Cloudy
12:53 PM 80.1 °F 81.1 °F 61.0 °F 52% 30.10 in 10.0 mi SSE 9.2 mph - N/A   Scattered Clouds
1:53 PM 81.0 °F 81.7 °F 61.0 °F 50% 30.08 in 10.0 mi SSE 12.7 mph 18.4 mph N/A   Clear
2:53 PM 82.9 °F 84.0 °F 63.0 °F 51% 30.06 in 10.0 mi South 8.1 mph - N/A   Clear
3:53 PM 82.9 °F 83.3 °F 61.0 °F 47% 30.04 in 10.0 mi SE 10.4 mph - N/A   Clear
4:53 PM 82.9 °F 84.0 °F 63.0 °F 51% 30.03 in 10.0 mi SSE 9.2 mph 19.6 mph N/A   Mostly Cloudy
5:53 PM 82.9 °F 83.7 °F 62.1 °F 49% 30.01 in 10.0 mi SSE 10.4 mph - N/A   Clear
6:53 PM 81.0 °F 82.2 °F 63.0 °F 54% 30.01 in 10.0 mi SSE 11.5 mph - N/A   Mostly Cloudy
7:53 PM 78.1 °F - 64.0 °F 62% 30.01 in 10.0 mi SE 8.1 mph - N/A   Clear
8:53 PM 72.0 °F - 64.0 °F 76% 30.04 in 10.0 mi SE 4.6 mph - N/A   Clear
9:53 PM 70.0 °F - 64.0 °F 81% 30.06 in 10.0 mi SSE 5.8 mph - N/A   Clear
10:53 PM 70.0 °F - 63.0 °F 78% 30.07 in 10.0 mi SSE 5.8 mph - N/A   Clear
11:53 PM 68.0 °F - 63.0 °F 84% 30.07 in 10.0 mi SSE 5.8 mph - N/A   Clear